{"data":{"norad_id":56059,"epoch":"2026-09-20T03:22:03.804384Z","epoch_age_seconds":49319,"freshness":"FRESH","line1":"1 56059U 23043P   26263.14032181  .00000023  00000+0  23871-4 0  9995","line2":"2 56059  87.9280 225.0774 0001709  78.3432 281.7894 13.21825533170787","mean_motion":13.21825533,"eccentricity":0.0001709,"inclination_deg":87.928,"raan_deg":225.0774,"arg_perigee_deg":78.3432,"mean_anomaly_deg":281.7894,"bstar":2.3871e-5,"rev_number":17078,"period_min":108.94024695769,"perigee_km":1176.46384606,"apogee_km":1179.0464499962,"semimajor_km":7555.8921480281,"source":"CELESTRAK","updated_at":"2026-09-20T09:00:44.789092Z"}}